Location: Gorze? G�rny
(49.8500°N, 19.5000°E)
Time: 05:17:49
(UTC+00:00)

PSLV R/B - Pass Details

Date: 13 May 2021
Orbit: 596 x 702 km, 97.9° (Epoch: 20 June)

Event Time Altitude Azimuth Distance (km) Brightness Sun altitude
Rises 23:46:26 0° 8° (N) 2,952 8.6 -19.9°
Reaches altitude 10° 23:48:46 10° 1° (N) 2,022 7.3 -19.8°
Maximum altitude 23:52:51 39° 292° (WNW) 935 4.4 -19.6°
Enters shadow 23:54:10 31° 253° (WSW) 1,094 4.5 -19.5°
